| time (UTC) | temp F | wind direction | speed MPH | gust MPH | rain 1hr in | rain 24hr in | rain mn in | humidity % | barometer mb |
| 20260503031554 | 30 | 267 | 0.0 | 0.0 | 0.00 | 0.19 | 0.00 | 91 | 1015.3 |
| 20260503030039 | 30 | 267 | 0.0 | 0.0 | 0.00 | 0.19 | 0.00 | 91 | 1015.3 |
| 20260503024536 | 31 | 267 | 1.0 | 2.0 | 0.00 | 0.22 | 0.19 | 91 | 1015.4 |
| 20260503023037 | 31 | 267 | 2.0 | 3.0 | 0.00 | 0.22 | 0.19 | 91 | 1015.3 |
| 20260503021530 | 31 | 265 | 0.0 | 0.0 | 0.00 | 0.22 | 0.19 | 91 | 1015.1 |
| 20260503020028 | 31 | 265 | 0.0 | 2.0 | 0.00 | 0.22 | 0.19 | 91 | 1014.7 |
| 20260503014524 | 31 | 265 | 0.0 | 2.0 | 0.00 | 0.25 | 0.19 | 90 | 1014.6 |
| 20260503013031 | 32 | 265 | 0.0 | 2.0 | 0.00 | 0.25 | 0.19 | 90 | 1014.7 |
| 20260503011517 | 32 | 265 | 0.0 | 2.0 | 0.00 | 0.25 | 0.19 | 90 | 1014.8 |
| 20260503010013 | 33 | 265 | 0.0 | 1.0 | 0.00 | 0.25 | 0.19 | 90 | 1014.7 |
| 20260503004510 | 33 | 265 | 0.0 | 2.0 | 0.00 | 0.28 | 0.19 | 90 | 1014.9 |
| 20260503003007 | 34 | 265 | 0.0 | 1.0 | 0.00 | 0.28 | 0.19 | 90 | 1014.9 |
| 20260503001503 | 34 | 265 | 0.0 | 1.0 | 0.00 | 0.28 | 0.19 | 89 | 1014.6 |
| 20260503000111 | 35 | 265 | 1.0 | 2.0 | 0.00 | 0.28 | 0.19 | 90 | 1014.3 |
| 20260502234557 | 36 | 265 | 0.0 | 3.0 | 0.00 | 0.32 | 0.19 | 89 | 1014.1 |
| 20260502233050 | 37 | 265 | 0.0 | 2.0 | 0.00 | 0.32 | 0.19 | 89 | 1014.0 |
| 20260502231605 | 38 | 265 | 0.0 | 0.0 | 0.00 | 0.32 | 0.19 | 89 | 1013.9 |
| 20260502230041 | 39 | 265 | 0.0 | 0.0 | 0.00 | 0.32 | 0.19 | 89 | 1013.7 |
| 20260502224535 | 40 | 265 | 0.0 | 1.0 | 0.00 | 0.34 | 0.19 | 88 | 1013.6 |
| 20260502223033 | 40 | 265 | 0.0 | 2.0 | 0.00 | 0.34 | 0.19 | 88 | 1013.6 |
| 20260502221534 | 41 | 265 | 0.0 | 1.0 | 0.00 | 0.34 | 0.19 | 87 | 1013.5 |
| 20260502220028 | 42 | 265 | 0.0 | 2.0 | 0.00 | 0.34 | 0.19 | 86 | 1013.5 |
| 20260502214526 | 43 | 265 | 0.0 | 4.0 | 0.00 | 0.35 | 0.19 | 84 | 1013.4 |
| 20260502213022 | 45 | 51 | 1.0 | 8.0 | 0.00 | 0.35 | 0.19 | 81 | 1013.2 |
| 20260502211519 | 47 | 174 | 3.0 | 6.0 | 0.00 | 0.35 | 0.19 | 77 | 1013.0 |
| 20260502210017 | 50 | 251 | 1.0 | 3.0 | 0.00 | 0.35 | 0.19 | 74 | 1012.8 |
| 20260502204516 | 50 | 236 | 2.0 | 7.0 | 0.00 | 0.37 | 0.19 | 73 | 1012.5 |
| 20260502203010 | 50 | 123 | 1.0 | 9.0 | 0.00 | 0.37 | 0.19 | 74 | 1012.3 |
| 20260502201505 | 51 | 85 | 2.0 | 7.0 | 0.00 | 0.37 | 0.19 | 74 | 1012.1 |
| 20260502194619 | 50 | 85 | 5.0 | 11.0 | 0.00 | 0.38 | 0.19 | 77 | 1012.0 |
| 20260502193107 | 49 | 96 | 4.0 | 10.0 | 0.00 | 0.38 | 0.19 | 79 | 1011.9 |
| 20260502191601 | 49 | 51 | 2.0 | 8.0 | 0.00 | 0.38 | 0.19 | 80 | 1011.8 |
| 20260502190052 | 49 | 87 | 2.0 | 8.0 | 0.00 | 0.38 | 0.19 | 82 | 1011.9 |
| 20260502184556 | 48 | 150 | 2.0 | 12.0 | 0.00 | 0.38 | 0.19 | 83 | 1011.9 |
| 20260502183042 | 47 | 60 | 3.0 | 7.0 | 0.00 | 0.38 | 0.19 | 84 | 1011.9 |
| 20260502181547 | 46 | 340 | 5.0 | 16.0 | 0.00 | 0.38 | 0.19 | 85 | 1012.0 |
| 20260502163033 | 46 | 185 | 1.0 | 9.0 | 0.00 | 0.38 | 0.19 | 87 | 1011.7 |
| 20260502161519 | 46 | 147 | 5.0 | 13.0 | 0.00 | 0.38 | 0.19 | 87 | 1011.5 |
| 20260502151503 | 44 | 123 | 0.0 | 4.0 | 0.00 | 0.38 | 0.19 | 89 | 1011.4 |
| 20260502123058 | 42 | 155 | 0.0 | 4.0 | 0.00 | 0.38 | 0.19 | 91 | 1009.7 |
| 20260502121527 | 42 | 190 | 2.0 | 6.0 | 0.00 | 0.38 | 0.19 | 92 | 1009.5 |
| 20260502114521 | 43 | 174 | 5.0 | 9.0 | 0.00 | 0.38 | 0.19 | 93 | 1009.1 |
| 20260502113019 | 42 | 240 | 0.0 | 0.0 | 0.00 | 0.38 | 0.19 | 93 | 1008.9 |
| 20260502111517 | 42 | 240 | 0.0 | 0.0 | 0.00 | 0.38 | 0.19 | 93 | 1008.8 |
| 20260502110015 | 41 | 240 | 0.0 | 0.0 | 0.00 | 0.38 | 0.19 | 92 | 1008.6 |
| 20260502104511 | 41 | 240 | 0.0 | 0.0 | 0.00 | 0.38 | 0.19 | 92 | 1008.5 |
| 20260502103012 | 41 | 240 | 0.0 | 0.0 | 0.00 | 0.38 | 0.19 | 92 | 1008.3 |
| 20260502101504 | 41 | 240 | 0.0 | 0.0 | 0.00 | 0.38 | 0.19 | 92 | 1008.0 |
| 20260502071533 | 42 | 11 | 1.0 | 4.0 | 0.02 | 0.35 | 0.16 | 90 | 1007.3 |
| 20260502070032 | 42 | 5 | 1.0 | 3.0 | 0.02 | 0.34 | 0.15 | 90 | 1007.2 |
| 20260502064534 | 42 | 342 | 0.0 | 3.0 | 0.02 | 0.33 | 0.14 | 90 | 1007.2 |
| 20260502063034 | 42 | 355 | 3.0 | 7.0 | 0.05 | 0.33 | 0.14 | 89 | 1007.1 |
| 20260502061524 | 43 | 335 | 3.0 | 8.0 | 0.07 | 0.33 | 0.14 | 89 | 1007.1 |
| 20260502060024 | 43 | 262 | 5.0 | 12.0 | 0.08 | 0.32 | 0.13 | 89 | 1007.2 |
| 20260502054523 | 43 | 279 | 1.0 | 8.0 | 0.07 | 0.31 | 0.12 | 90 | 1007.2 |
| 20260502053017 | 43 | 213 | 4.0 | 10.0 | 0.06 | 0.28 | 0.09 | 90 | 1007.2 |
| 20260502051521 | 43 | 30 | 2.0 | 6.0 | 0.04 | 0.26 | 0.07 | 90 | 1006.9 |
| 20260502050027 | 43 | 238 | 2.0 | 8.0 | 0.03 | 0.24 | 0.06 | 89 | 1007.1 |
| 20260502044509 | 43 | 230 | 5.0 | 10.0 | 0.02 | 0.24 | 0.05 | 90 | 1007.4 |
| 20260502043005 | 43 | 257 | 5.0 | 10.0 | 0.02 | 0.23 | 0.04 | 90 | 1006.9 |
| 20260502041502 | 43 | 252 | 5.0 | 11.0 | 0.02 | 0.22 | 0.03 | 89 | 1007.3 |
| 20260502040107 | 43 | 207 | 6.0 | 10.0 | 0.02 | 0.21 | 0.02 | 90 | 1007.6 |
| 20260502034603 | 43 | 274 | 6.0 | 11.0 | 0.03 | 0.21 | 0.02 | 90 | 1007.7 |
| 20260502033051 | 43 | 250 | 6.0 | 8.0 | 0.03 | 0.20 | 0.02 | 90 | 1007.8 |